Location: *
(48.8780°N, 19.2358°E)
Time: 05:57:30
(UTC+00:00)

ATLAS CENTAUR R/B - Pass Details

Date: 18 October 2019
Orbit: 456 x 692 km, 64.6° (Epoch: 31 October)

Event Time Altitude Azimuth Distance (km) Brightness Sun altitude
Rises 18:16:11 0° 321° (NW) 2,990 5.9 -24.9°
Reaches altitude 10° 18:19:22 10° 342° (NNW) 2,034 4.6 -25.4°
Enters shadow 18:21:38 16° 11° (NNE) 1,635 3.7 -25.8°
